Home   Weather   Saarbrücken   Past weeks

Flag for Germany Past Weather in Saarbrücken, Saarland, Germany — Yesterday and Last 2 Weeks

Now
72 °F

Broken clouds.


Feels Like: 77 °F
Forecast: 53 / 75 °F
Wind: 8 mph from Northwest

Location: Saarbruecken / Ensheim

Current Time: May 24, 2017 at 5:52:46 pm

Latest Report: May 24, 2017 at 5:20 pm


Visibility: N/A

Pressure: 30.21 "Hg

Humidity: 53%

Dew Point: 54 °F

Location of SaarbrückenLocation

Past Weather in Saarbrücken — Graph

°F

Saarbrücken Temperature Yesterday

Maximum temperature yesterday: 75 °F (at 2:50 pm)
Minimum temperature yesterday: 54 °F (at 5:20 am)
Average temperature yesterday: 65 °F

High & Low Weather Summary for the Past Weeks

 TemperatureHumidityPressure
High82 °F (May 17, 4:20 pm)100% (May 12, 12:50 am)30.42 "Hg (May 12, 12:50 am)
Low36 °F (May 10, 4:20 am)19% (May 17, 4:50 pm)29.50 "Hg (May 11, 1:50 pm)
Average60 °F68%30.03 "Hg
* Reported May 9 4:20 pm — May 24 4:50 pm, Saarbrücken. Weather by CustomWeather, © 2017

Note: Actual official high and low records may vary slightly from our data, if they occured in-between our weather recording intervals... More about our weather records

Advertising

Saarbrücken Weather History for the Previous 24 Hours

Scroll right to see more
 ConditionsComfort  
Time TempWeatherWind HumidityBarometerVisibility
4:50 pm
Wed, May 24
70 °FPartly sunny.8 mph57%30.24 "HgN/A
4:20 pm70 °FBroken clouds.5 mph53%30.24 "HgN/A
3:50 pm68 °FPassing clouds.8 mph56%30.24 "HgN/A
3:20 pm70 °FPassing clouds.5 mph53%30.24 "HgN/A
2:50 pm68 °FPartly sunny.6 mph56%30.24 "HgN/A
2:20 pm70 °FBroken clouds.7 mph53%30.24 "HgN/A
1:50 pm70 °FBroken clouds.7 mph50%30.24 "HgN/A
1:20 pm68 °FScattered clouds.8 mph53%30.24 "HgN/A
12:50 pm68 °FScattered clouds.7 mph49%30.27 "HgN/A
12:20 pm66 °FBroken clouds.6 mph52%30.27 "HgN/A
11:50 am66 °FBroken clouds.6 mph52%30.27 "HgN/A
11:20 am66 °FBroken clouds.6 mph49%30.27 "HgN/A
10:50 am63 °FPartly sunny.7 mph56%30.27 "HgN/A
10:20 am64 °FPartly sunny.3 mph52%30.27 "HgN/A
9:50 am63 °FPartly sunny.3 mph56%30.27 "HgN/A
9:20 am61 °FPartly sunny.3 mph63%30.27 "HgN/A
8:50 am61 °FPartly sunny.6 mph63%30.27 "HgN/A
8:20 am59 °FBroken clouds.3 mph72%30.27 "HgN/A
7:50 am55 °FBroken clouds.1 mph82%30.27 "HgN/A
7:20 am55 °FPartly sunny.1 mph82%30.27 "HgN/A
6:50 am52 °FBroken clouds.2 mph88%30.24 "HgN/A
6:20 am52 °FPartly sunny.1 mph82%30.24 "HgN/A
5:50 am52 °FPartly sunny.1 mph82%30.24 "HgN/A
5:20 am50 °FPartly cloudy.2 mph88%30.24 "HgN/A
4:50 am52 °FPartly cloudy.2 mph82%30.24 "HgN/A
4:20 am50 °FClear.2 mph88%30.24 "Hg10 mi
3:50 am54 °FClear.3 mph77%30.21 "Hg10 mi
3:20 am55 °FClear.3 mph67%30.24 "HgN/A
2:50 am57 °FClear.5 mph67%30.21 "HgN/A
2:20 am57 °FClear.7 mph67%30.21 "HgN/A
1:50 am57 °FClear.6 mph72%30.21 "HgN/A
1:20 am59 °FClear.7 mph68%30.21 "HgN/A
12:50 am59 °FClear.8 mph68%30.21 "HgN/A
12:20 am61 °FClear.8 mph63%30.21 "HgN/A
11:50 pm
Tue, May 23
63 °FClear.10 mph64%30.21 "HgN/A
11:20 pm63 °FClear.9 mph64%30.18 "HgN/A
10:50 pm63 °FPassing clouds.9 mph68%30.18 "HgN/A
10:20 pm63 °FPassing clouds.5 mph64%30.18 "HgN/A
9:50 pm66 °FClear.8 mph60%30.15 "Hg10 mi
9:20 pm66 °FClear.13 mph60%30.15 "Hg10 mi
8:20 pm70 °FSunny.14 mph57%30.12 "Hg10 mi
7:50 pm72 °FSunny.15 mph53%30.12 "Hg10 mi
7:20 pm72 °FPassing clouds.13 mph53%30.12 "HgN/A
6:50 pm73 °FPassing clouds.13 mph47%30.09 "HgN/A
6:20 pm73 °FSunny.14 mph47%30.09 "Hg10 mi
5:50 pm75 °FSunny.14 mph41%30.09 "Hg10 mi
5:20 pm73 °FSunny.15 mph44%30.09 "Hg10 mi
Weather by CustomWeather, © 2017

See weather overviewHow to use our weather pages